EHI
0 0 0 0 0 0 0 0 0 0 0 0 0 0 0 0 0 0 0 0 0 0 0 0 0 0 0 0 0 0 0 0 0 0 0 0 0 0
0 0 0 0 0 0 0 0 0 0 0 0 0 0 0 0 0 0 0 0 0 0 0 0 0 0 0 0 0 0 0 0 0 0 0 0 0 0
0 0 0 0 0 0 0 0 0 0 0 0 0 0 0 0 0 0 0 0 0 0 0 0 0 0 0 0 0 0 0 0 0 0 0 0 0 0
0 0 0 0 0 0 0 0 0 0 0 0 0 0 0 0 0 0 0 0 0 0 0 0 0 0 0 0 0 0 0 0 0 0 0 0 0 0
0 0 0 0 0 0 0 0 0 0 0 0 0 0 0 0 0 0 0 0 0 0 0 0 0 0 0 0 0 0 0 0 0 0 0 0 0 0
0 0 0 0 0 0 0 0 0 0 0 0 0 0 0 0 0 0 0 0 0 0 0 0 0 0 0 0 0 0 0 0 0 0 0 0 0 0
0 0 0 0 0 0 0 0 0 0 0 0 0 0 0 0 0 0 0 0 0 0 0 0 0 0 0 0 0 0 0 0 0 0 0 0 0 0
0 0 0 0 0 0 0 0 0 0 0 0 0 0 0 0 0 0 0 0 0 0 0 0 0 0 0 0 0 0 0 0 0 0 0 0 0 0
0 0 0 0 0 0 0 0 0 0 0 0 0 0 0 0 0 0 0 0 0 0 0 0 0 0 0 0 0 0 0 0 0 0 0 0 0 0
0 0 0 0 0 0 0 0 0 0 0 0 0 0 0 0 0 0 0 0 0 0 0 0 0 0 0 0 0 0 0 0 0 0 0 0 0 0
0 0 0 0 0 0 0 0 0 0 0 0 0 0 0 0 0 0 0 0 0 0 0 0 0 0 0 0 0 0 0 0 0 0 0 0 0 0
0 0 0 0 0 0 0 0 0 0 0 0 0 0 0 0 0 0 0 0 0 0 0 0 0 0 0 0 0 0 0 0 0 0 0 0 0 0
0 0 0 0 0 0 0 0 0 0 0 0 0 0 0 0 0 0 0 0 0 0 0 0 0 0 0 0 0 0 0 0 0 0 0 0 0 0
0 0 0 0 0 0 0 0 0 0 0 0 0 0 0 0 0 0 0 0 0 0 0 0 0 0 0 0 0 0 0 0 0 0 0 0 0 0
0 0 0 0 0 0 0 0 0 0 0 0 0 0 0 0 0 0 0 0 0 0 0 0 0 0 0 0 0 0 0 0 0 0 0 0 0 0
0 0 0 0 0 0 0 0 0 0 0 0 0 0 0 0 0 0 0 0 0 0 0 0 0 0 0 0 0 0 0 0 0 0 0 0 0 0
0 0 0 0 0 0 0 0 0 0 0 0 0 0 0 0 0 0 0 0 0 0 0 0 0 0 0 0 0 0 0 0 0 0 0 0 0 0
0 0 0 0 0 0 0 0 0 0 0 0 0 0 0 0 0 0 0 0 0 0 0 0 0 0 0 0 0 0 0 0 0 0 0 0 0 0
0 0 0 0 0 0 0 0 0 0 0 0 0 0 0 0 0 0 0 0 0 0 0 0 0 0 0 0 0 0 0 0 0 0 0 0 0 0
0 0 0 0 0 0 0 0 0 0 0 0 0 0 0 0 0 0 0 0 0 0 0 0 0 0 0 0 0 0 0 0 0 0 0 0 0 0
0 0 0 0 0 0 0 0 0 0 0 0 0 0 0 0 0 0 0 0 0 0 0 0 0 0 0 0 0 0 0 0 0 0 0 0 0 0
0 0 0 0 0 0 0 0 0 0 0 0 0 0 0 0 0 0 0 0 0 0 0 0 0 0 0 0 0 0 0 0 0 0 0 0 0 0
0 0 0 0 0 0 0 0 0 0 0 0 0 0 0 0 0 0 0 0 0 0 0 0 0 0 0 0 0 0 0 0 0 0 0 0 0 0
Wind_Speed
2 3 2 2 2 3 3 3 3 3 3 3 2 2 2 2 3 2 3 5 5 5 6 6 7 7 7 7 7 8 9 8 8 8 9 10 10 11
2 2 2 2 2 2 2 2 3 3 4 2 2 2 2 2 2 2 3 5 6 6 5 6 6 6 6 7 7 8 8 8 9 9 9 10 11 11
2 1 2 2 1 1 2 2 2 2 4 3 2 2 2 2 2 2 2 3 3 5 5 6 5 5 6 7 7 7 7 8 8 9 9 9 9 10
3 2 3 2 2 2 2 2 2 2 3 4 2 2 2 2 2 2 2 2 3 4 5 5 5 5 5 6 6 6 7 7 8 8 8 9 9 9
3 3 3 2 2 2 2 2 2 2 2 2 2 1 2 2 2 2 3 2 3 3 4 4 5 5 6 6 6 6 6 7 7 8 8 9 9 9
3 3 3 2 3 2 2 2 1 1 1 1 2 2 2 2 1 2 3 2 3 3 3 3 4 5 6 6 6 7 7 7 7 7 8 9 9 9
3 3 3 3 3 2 2 1 1 1 1 2 2 2 2 1 2 2 3 2 3 2 2 2 2 2 3 5 6 6 6 7 7 7 7 7 8 9
4 4 4 4 4 4 3 3 3 2 2 2 2 3 3 3 2 2 2 2 3 1 2 3 2 3 3 3 4 6 6 6 7 7 6 6 6 7
3 4 4 4 4 3 3 4 3 4 4 3 4 4 4 3 3 3 3 3 3 2 2 3 2 3 3 4 5 6 6 6 6 6 6 6 6 6
3 3 3 4 4 3 2 2 3 3 3 3 4 5 5 4 4 4 3 3 3 2 2 3 3 3 3 3 5 6 6 7 7 6 6 6 6 6
4 3 3 3 5 4 2 2 3 4 3 3 4 5 5 5 4 2 2 2 2 2 2 3 3 3 3 3 4 6 6 6 6 6 6 6 6 5
4 4 4 4 5 4 2 2 3 4 4 4 3 3 3 3 4 4 4 3 2 3 2 2 2 2 2 2 2 2 3 4 6 6 6 6 5 3
3 4 4 6 5 4 3 2 4 4 3 3 3 3 3 2 2 3 4 4 4 3 2 3 2 2 2 2 2 2 2 2 2 3 5 5 6 5
3 3 4 6 5 5 3 3 4 3 2 2 3 3 3 3 3 2 3 4 4 5 4 3 3 3 2 3 3 2 2 2 2 2 2 3 4 5
3 4 5 6 5 4 4 4 3 2 2 2 3 3 3 3 3 2 2 2 2 3 3 4 4 3 3 3 3 3 2 2 2 2 2 2 2 2
3 4 5 4 3 4 4 3 2 1 2 3 3 3 3 3 2 2 2 2 2 2 2 3 4 4 3 4 3 3 3 2 2 2 2 2 2 3
3 3 3 3 4 4 3 3 3 2 2 2 3 3 3 3 3 2 2 2 2 3 3 2 2 3 4 3 3 3 3 3 3 2 2 2 2 3
3 2 3 3 3 4 4 4 3 3 3 3 3 3 3 3 3 2 2 2 2 3 2 2 1 1 1 2 3 4 3 3 3 2 3 3 3 3
2 3 3 3 4 4 4 4 4 4 3 3 3 3 3 2 2 2 2 2 3 3 3 2 1 1 2 3 2 3 3 3 2 2 3 3 4 3
2 3 4 4 4 4 4 4 4 4 3 3 3 3 3 3 3 3 3 3 3 3 3 2 2 2 3 3 3 3 3 4 3 3 2 2 2 2
3 3 4 4 4 4 4 4 4 4 4 3 3 3 3 3 3 3 3 4 4 3 4 4 4 4 2 1 2 3 2 3 4 3 2 2 2 2
3 4 4 4 4 4 4 4 4 4 4 3 4 4 3 3 4 4 3 3 3 4 4 3 2 1 1 2 3 3 3 2 1 2 2 2 2 2
4 4 4 4 4 4 4 4 5 4 4 4 4 4 3 3 3 3 3 3 3 3 3 2 2 1 1 1 2 2 2 2 2 1 1 1 0 1
Wind_Direction
275 265 253 251 240 234 222 212 222 262 278 264 265 259 259 257 262 258 253 251 248 242 239 240 241 239 238 239 237 232 225 223 224 226 230 233 235 236
287 295 290 273 255 241 234 230 224 231 256 262 259 280 277 281 284 268 264 264 255 249 248 241 237 239 238 239 238 234 225 221 221 224 229 232 233 235
329 315 294 296 283 261 241 230 228 222 248 276 278 291 285 293 304 293 273 258 257 247 250 245 238 237 242 241 237 231 227 224 223 226 229 231 233 234
325 328 312 309 297 280 256 243 235 222 232 267 286 288 271 280 292 291 288 278 273 265 260 251 244 239 239 240 233 227 229 230 229 231 231 232 233 234
313 313 312 314 304 296 280 262 248 237 227 245 276 287 280 293 313 310 300 289 281 274 268 256 250 245 243 240 233 230 231 232 233 235 237 237 236 234
313 304 304 292 275 270 271 264 257 256 248 251 272 287 285 288 271 279 289 286 280 276 278 275 266 255 250 244 238 234 233 233 233 236 238 238 236 234
327 321 318 313 298 280 268 243 231 245 256 255 267 277 276 280 263 254 263 288 284 263 270 271 270 269 261 249 240 233 232 232 232 232 235 238 234 232
328 321 314 316 314 315 307 280 245 234 240 243 253 255 260 254 248 248 251 267 279 262 250 272 252 261 260 248 241 234 232 232 232 232 229 228 228 228
312 319 321 324 321 306 309 312 289 271 243 230 245 251 254 244 231 242 239 242 256 261 234 263 253 257 259 256 249 240 233 229 228 226 226 223 224 225
299 299 308 317 322 313 307 313 306 293 268 247 247 255 256 251 229 232 239 247 265 254 223 257 267 263 265 260 252 243 234 228 226 225 224 223 224 226
314 312 308 306 319 321 312 305 308 306 293 276 270 274 275 263 239 214 220 235 270 263 215 237 263 274 267 260 253 239 235 234 232 226 222 223 223 222
319 321 323 319 324 331 307 291 297 304 315 321 317 313 295 274 241 219 216 225 250 262 213 212 246 259 273 262 268 258 248 242 233 228 221 218 211 205
315 317 318 324 322 319 298 273 273 290 308 311 315 318 316 297 264 239 222 219 228 245 222 199 225 230 242 275 285 266 254 255 238 229 217 211 202 197
300 304 309 321 327 329 320 310 305 310 312 317 318 316 314 311 298 271 243 231 234 246 239 209 220 223 231 259 273 278 269 261 248 244 234 207 205 208
296 307 316 324 327 330 325 321 320 327 322 314 308 304 300 298 305 306 292 260 255 251 243 223 218 225 226 241 257 265 276 273 243 234 228 214 211 207
315 324 328 332 337 331 330 329 324 308 292 291 297 301 304 308 313 311 304 302 288 287 270 240 226 223 235 239 242 254 256 256 243 233 230 223 214 212
333 342 353 350 347 340 337 331 327 323 308 303 302 307 307 306 310 311 300 296 284 290 301 294 257 234 234 235 241 248 254 255 251 243 226 235 230 220
10 354 343 336 328 324 322 322 322 315 307 301 294 291 295 298 304 308 300 287 285 286 293 304 308 297 264 252 229 245 253 262 267 250 228 233 241 228
11 341 325 317 312 310 308 307 308 308 304 301 298 292 289 290 292 293 292 293 291 288 289 289 273 247 264 282 264 215 245 265 263 246 228 232 243 241
336 321 317 312 308 306 305 305 306 309 306 301 294 289 287 286 283 283 281 286 285 284 287 286 270 250 246 260 274 273 238 240 242 244 242 241 252 256
323 316 311 311 311 310 308 304 302 300 303 300 293 289 286 283 279 277 278 279 275 275 283 288 284 273 255 232 244 264 270 238 232 238 239 231 242 240
310 311 312 313 313 311 309 309 306 302 304 298 297 296 291 285 283 282 280 281 276 275 282 291 302 286 218 230 253 270 291 317 269 238 226 225 225 228
305 308 311 315 314 311 310 310 310 305 302 298 297 296 293 289 286 285 282 282 284 286 294 306 319 309 267 251 259 283 309 330 352 21 9 5 172 213